Location: Newark
(48.9000°N, 0.7000°E)
Time: 20:58:52
(UTC+00:00)

ISS - Pass Details

Date: 04 October 2020
Orbit: 418 x 420 km, 51.6° (Epoch: 20 October)

Event Time Altitude Azimuth Distance (km) Brightness Sun altitude
Rises 19:55:19 0° 281° (WNW) 2,368 1.4 -24.4°
Reaches altitude 10° 19:58:26 10° 250° (WSW) 1,499 -0.4 -24.9°
Enters shadow 19:59:43 12° 227° (SW) 1,374 -0.9 -25.1°
